Total_Precipitation_Accumulation
1.26 1.37 1.49 1.52 1.55 1.63 1.74 1.84 1.90 1.85 1.66 1.51 1.51 1.52 1.52 1.55 1.71 1.37 1.28 1.47 1.38 1.32 1.28 1.21 1.14 1.11 1.08 1.12 1.18 1.25 1.31 1.34 1.37 1.42 1.49 1.59 1.65 1.71
0.98 1.06 1.17 1.27 1.36 1.45 1.59 1.68 1.71 1.71 1.66 1.50 1.44 1.45 1.43 1.40 1.54 1.20 1.18 1.35 1.23 1.15 1.09 1.07 1.04 1.02 0.98 0.98 1.03 1.07 1.07 1.06 1.09 1.08 1.08 1.13 1.24 1.37
0.98 1.03 1.07 1.11 1.17 1.22 1.28 1.36 1.48 1.57 1.67 1.64 1.48 1.43 1.43 1.40 1.33 1.14 1.05 1.01 1.04 1.09 1.03 0.99 0.93 0.89 0.87 0.84 0.79 0.79 0.80 0.82 0.85 0.87 0.86 0.89 0.94 1.01
0.88 0.91 0.91 0.92 0.97 1.04 1.11 1.14 1.22 1.33 1.45 1.55 1.47 1.34 1.30 1.29 1.24 1.16 1.00 0.89 0.88 0.92 0.86 0.81 0.80 0.77 0.73 0.70 0.69 0.67 0.65 0.65 0.67 0.71 0.72 0.74 0.79 0.86
0.74 0.75 0.77 0.80 0.81 0.85 0.88 0.94 1.00 1.05 1.17 1.23 1.24 1.18 1.14 1.08 1.10 1.08 0.97 0.97 0.84 0.83 0.74 0.67 0.64 0.61 0.59 0.55 0.56 0.61 0.62 0.57 0.53 0.52 0.52 0.56 0.60 0.63
0.56 0.58 0.64 0.71 0.71 0.73 0.72 0.75 0.81 0.89 0.98 1.05 1.05 1.04 1.02 0.95 0.97 1.01 0.98 0.91 0.81 0.66 0.67 0.59 0.53 0.48 0.48 0.48 0.46 0.45 0.47 0.53 0.57 0.51 0.42 0.39 0.38 0.37
0.45 0.44 0.45 0.51 0.58 0.58 0.56 0.63 0.73 0.83 0.87 0.92 0.89 0.84 0.84 0.88 0.89 0.86 0.83 0.79 0.74 0.64 0.66 0.61 0.58 0.56 0.58 0.54 0.49 0.44 0.43 0.41 0.40 0.40 0.39 0.35 0.33 0.29
0.43 0.44 0.41 0.42 0.43 0.43 0.47 0.60 0.74 0.77 0.80 0.86 0.84 0.83 0.82 0.81 0.82 0.82 0.85 0.86 0.85 0.70 0.68 0.63 0.58 0.62 0.60 0.56 0.52 0.45 0.41 0.42 0.39 0.35 0.35 0.33 0.32 0.32
0.41 0.41 0.36 0.35 0.39 0.41 0.46 0.53 0.60 0.62 0.68 0.80 0.89 0.87 0.87 0.88 0.90 0.86 0.90 0.93 0.89 0.79 0.84 0.79 0.61 0.56 0.46 0.42 0.44 0.38 0.38 0.42 0.40 0.36 0.35 0.35 0.33 0.32
0.41 0.42 0.44 0.43 0.42 0.44 0.45 0.48 0.57 0.63 0.65 0.67 0.81 0.81 0.77 0.80 0.84 0.87 0.91 0.91 0.89 0.85 0.91 0.93 0.67 0.58 0.46 0.51 0.47 0.35 0.31 0.32 0.36 0.36 0.35 0.34 0.34 0.35
0.35 0.33 0.37 0.41 0.43 0.42 0.45 0.56 0.62 0.67 0.56 0.57 0.66 0.72 0.74 0.76 0.73 0.77 0.94 1.07 1.03 0.84 0.83 0.91 0.76 0.65 0.55 0.55 0.50 0.42 0.34 0.30 0.28 0.29 0.32 0.35 0.36 0.38
0.36 0.34 0.32 0.33 0.34 0.35 0.44 0.57 0.68 0.68 0.60 0.62 0.76 0.85 0.83 0.89 0.84 0.85 1.05 1.11 1.05 1.00 0.85 0.87 0.84 0.81 0.77 0.59 0.54 0.51 0.48 0.42 0.33 0.30 0.28 0.30 0.39 0.44
0.40 0.41 0.37 0.27 0.25 0.28 0.37 0.48 0.57 0.54 0.63 0.79 0.87 0.89 0.92 0.96 0.91 0.86 0.96 1.03 1.09 1.14 0.93 0.93 0.94 0.94 0.95 0.75 0.55 0.52 0.54 0.56 0.56 0.56 0.50 0.41 0.39 0.41
0.43 0.41 0.37 0.29 0.27 0.30 0.36 0.45 0.48 0.55 0.73 0.89 0.94 0.94 0.87 0.86 0.86 0.81 0.86 0.88 0.94 0.96 0.89 0.91 1.02 1.05 0.98 0.83 0.66 0.54 0.56 0.64 0.75 0.83 0.80 0.70 0.56 0.52
0.32 0.29 0.28 0.30 0.33 0.45 0.46 0.46 0.55 0.74 0.86 0.90 0.96 0.97 0.87 0.78 0.73 0.68 0.72 0.82 0.84 0.75 0.63 0.66 0.84 0.87 0.90 0.87 0.79 0.70 0.67 0.68 0.81 0.95 0.98 0.91 0.78 0.66
0.30 0.30 0.35 0.42 0.47 0.55 0.62 0.70 0.75 0.80 0.80 0.86 0.89 0.86 0.75 0.70 0.71 0.69 0.73 0.80 0.86 0.79 0.62 0.55 0.64 0.74 0.80 0.75 0.77 0.77 0.74 0.81 0.85 0.95 1.08 1.12 0.96 0.72
0.25 0.39 0.58 0.64 0.70 0.75 0.79 0.84 0.88 0.83 0.77 0.77 0.79 0.78 0.74 0.70 0.68 0.64 0.69 0.73 0.78 0.77 0.67 0.57 0.56 0.59 0.58 0.60 0.70 0.73 0.74 0.81 0.91 0.98 1.09 1.23 1.19 0.91
0.30 0.51 0.62 0.66 0.71 0.72 0.72 0.77 0.82 0.82 0.75 0.70 0.71 0.71 0.70 0.67 0.67 0.62 0.62 0.71 0.77 0.70 0.64 0.57 0.53 0.53 0.53 0.50 0.57 0.67 0.73 0.88 0.98 0.98 0.95 1.07 1.26 1.12
0.46 0.58 0.61 0.64 0.68 0.63 0.63 0.68 0.72 0.71 0.64 0.61 0.61 0.59 0.57 0.57 0.61 0.61 0.59 0.59 0.58 0.54 0.52 0.46 0.47 0.54 0.58 0.62 0.63 0.75 0.81 0.87 0.93 0.92 0.90 0.98 1.18 1.15
0.55 0.58 0.59 0.59 0.60 0.60 0.58 0.58 0.56 0.51 0.47 0.49 0.53 0.53 0.52 0.53 0.54 0.55 0.49 0.46 0.49 0.47 0.45 0.43 0.42 0.47 0.54 0.59 0.77 0.90 0.87 0.75 0.76 0.88 0.98 1.01 1.11 1.11
0.50 0.51 0.51 0.50 0.50 0.55 0.53 0.47 0.44 0.42 0.39 0.38 0.41 0.45 0.46 0.45 0.47 0.44 0.38 0.31 0.35 0.39 0.41 0.42 0.39 0.36 0.38 0.44 0.61 0.80 0.85 0.89 0.86 0.88 0.94 0.94 0.83 0.72
0.41 0.43 0.41 0.39 0.41 0.42 0.38 0.37 0.36 0.37 0.33 0.31 0.31 0.32 0.34 0.36 0.36 0.34 0.30 0.29 0.31 0.32 0.35 0.37 0.35 0.33 0.36 0.45 0.60 0.75 0.76 0.68 0.66 0.73 0.77 0.67 0.55 0.55
0.39 0.38 0.35 0.33 0.32 0.31 0.31 0.33 0.32 0.32 0.31 0.31 0.29 0.27 0.27 0.28 0.25 0.23 0.22 0.20 0.21 0.22 0.25 0.29 0.30 0.30 0.32 0.34 0.40 0.46 0.45 0.39 0.33 0.34 0.47 0.59 0.59 0.62